カタログに戻る

CZ-6A DEB

運用中PO
NORAD 55212·DEBRIS·🇨🇳 China

打ち上げ Nov 11, 2022 から Taiyuan Satellite Launch Center

Loading…

次のパス (今後24時間)

TLE

最新Source: Space-Track

元期: Sep 14, 2026, 05:37 UTC

1 55212U 22151WD  26257.23439545  .00098653  00000-0  40697-2 0  9992
2 55212  98.6358 355.6859 0024605 278.9470  80.8979 15.23358717199485

AllMySatでCZ-6A DEBをリアルタイム追跡

Download on the App Store